• In Belgien
  • Länderverzeichnis
  • Für 7 Tage
  • Wassertemperatur
  • Satellitenkarten
  • Wetterkarte
  • Widgets
  • user-avatar
    Anmelden

    Stündliche Wetter Kozani

    Heute, 13 Dezember, Mittwoch

    Zeit Temperatur Niederschläge Wind Luftdruck Luftfeuchtigkeit
    00:00 +7°C° 0 mm 2 m/S 707 mmHg 88%
    01:00 +7°C° 0 mm 2 m/S 707 mmHg 88%
    02:00 +7°C° 0 mm 2 m/S 707 mmHg 88%
    03:00 +7°C° 0 mm 2 m/S 707 mmHg 89%
    04:00 +6°C° 0 mm 2 m/S 706 mmHg 89%
    05:00 +6°C° 0 mm 2 m/S 706 mmHg 89%
    06:00 +6°C° 0 mm 2 m/S 707 mmHg 89%
    07:00 +6°C° 0 mm 2 m/S 706 mmHg 89%
    08:00 +8°C° 0 mm 2 m/S 707 mmHg 83%
    09:00 +9°C° 0 mm 2 m/S 707 mmHg 78%
    10:00 +12°C° 0 mm 2 m/S 707 mmHg 72%
    11:00 +13°C° 0 mm 2 m/S 707 mmHg 68%
    12:00 +14°C° 0 mm 2 m/S 707 mmHg 64%
    13:00 +15°C° 0 mm 2 m/S 706 mmHg 60%
    14:00 +14°C° 0 mm 2 m/S 706 mmHg 64%
    15:00 +13°C° 0 mm 2 m/S 705 mmHg 69%
    16:00 +12°C° 0 mm 2 m/S 705 mmHg 73%
    17:00 +10°C° 0 mm 2 m/S 705 mmHg 75%
    18:00 +10°C° 0 mm 2 m/S 705 mmHg 77%
    19:00 +9°C° 0 mm 2 m/S 705 mmHg 79%
    20:00 +9°C° 0 mm 2 m/S 704 mmHg 80%
    21:00 +8°C° 0 mm 2 m/S 704 mmHg 81%
    22:00 +8°C° 0 mm 2 m/S 704 mmHg 82%
    23:00 +8°C° 0 mm 2 m/S 704 mmHg 82%

    Morgen, 14 Dezember, Donnerstag

    Zeit Temperatur Niederschläge Wind Luftdruck Luftfeuchtigkeit
    00:00 +8°C° 0 mm 2 m/S 703 mmHg 82%
    01:00 +7°C° 0 mm 2 m/S 703 mmHg 82%
    02:00 +7°C° 0 mm 2 m/S 703 mmHg 84%
    03:00 +7°C° 0 mm 2 m/S 703 mmHg 85%
    04:00 +7°C° 0 mm 2 m/S 702 mmHg 87%
    05:00 +7°C° 0 mm 2 m/S 702 mmHg 87%
    06:00 +7°C° 0 mm 2 m/S 702 mmHg 88%
    07:00 +6°C° 0 mm 2 m/S 703 mmHg 88%
    08:00 +8°C° 0 mm 2 m/S 703 mmHg 81%
    09:00 +9°C° 0 mm 2 m/S 703 mmHg 73%
    10:00 +12°C° 0 mm 2 m/S 704 mmHg 66%
    11:00 +11°C° 0 mm 3 m/S 703 mmHg 61%
    12:00 +12°C° 0 mm 3 m/S 703 mmHg 56%
    13:00 +12°C° 0 mm 3 m/S 703 mmHg 51%
    14:00 +11°C° 0 mm 3 m/S 703 mmHg 55%
    15:00 +10°C° 0 mm 2 m/S 703 mmHg 59%
    16:00 +9°C° 0 mm 2 m/S 703 mmHg 62%
    17:00 +8°C° 0 mm 2 m/S 703 mmHg 65%
    18:00 +8°C° 0 mm 2 m/S 703 mmHg 68%
    19:00 +7°C° 0 mm 2 m/S 704 mmHg 71%
    20:00 +7°C° 0 mm 2 m/S 704 mmHg 73%
    21:00 +6°C° 0 mm 2 m/S 704 mmHg 74%
    22:00 +6°C° 0 mm 2 m/S 704 mmHg 76%
    23:00 +6°C° 0 mm 2 m/S 704 mmHg 77%

    übermorgen, 15 Dezember, Freitag

    Zeit Temperatur Niederschläge Wind Luftdruck Luftfeuchtigkeit
    00:00 +6°C° 0 mm 2 m/S 704 mmHg 78%
    01:00 +5°C° 0 mm 2 m/S 704 mmHg 79%
    02:00 +5°C° 0 mm 2 m/S 703 mmHg 79%
    03:00 +5°C° 0 mm 2 m/S 703 mmHg 78%
    04:00 +5°C° 0 mm 2 m/S 703 mmHg 78%
    05:00 +5°C° 0 mm 2 m/S 703 mmHg 77%
    06:00 +5°C° 0 mm 2 m/S 703 mmHg 75%
    07:00 +5°C° 0 mm 2 m/S 703 mmHg 74%
    08:00 +7°C° 0 mm 2 m/S 703 mmHg 69%
    09:00 +8°C° 0 mm 2 m/S 703 mmHg 65%
    10:00 +11°C° 0 mm 1 m/S 704 mmHg 60%
    11:00 +12°C° 0 mm 2 m/S 703 mmHg 59%
    12:00 +13°C° 0 mm 2 m/S 703 mmHg 57%
    13:00 +14°C° 0 mm 2 m/S 702 mmHg 56%
    14:00 +13°C° 0 mm 2 m/S 702 mmHg 61%
    15:00 +12°C° 0 mm 2 m/S 702 mmHg 67%
    16:00 +10°C° 0 mm 2 m/S 701 mmHg 72%
    17:00 +9°C° 0 mm 2 m/S 701 mmHg 75%
    18:00 +9°C° 0 mm 2 m/S 701 mmHg 78%
    19:00 +8°C° 0 mm 2 m/S 701 mmHg 81%
    20:00 +8°C° 0 mm 2 m/S 701 mmHg 82%
    21:00 +7°C° 0 mm 2 m/S 701 mmHg 83%
    22:00 +7°C° 0 mm 2 m/S 701 mmHg 84%
    23:00 +7°C° 0 mm 2 m/S 701 mmHg 85%

    16 Dezember, Samstag

    Zeit Temperatur Niederschläge Wind Luftdruck Luftfeuchtigkeit
    00:00 +7°C° 0 mm 2 m/S 701 mmHg 86%
    01:00 +7°C° 0 mm 2 m/S 700 mmHg 87%
    02:00 +7°C° 0 mm 2 m/S 700 mmHg 88%
    03:00 +7°C° 0 mm 2 m/S 700 mmHg 88%
    04:00 +7°C° 0 mm 2 m/S 700 mmHg 89%
    05:00 +7°C° 0 mm 2 m/S 700 mmHg 90%
    06:00 +7°C° 0 mm 2 m/S 700 mmHg 90%
    07:00 +6°C° 0 mm 2 m/S 700 mmHg 90%
    08:00 +8°C° 0 mm 2 m/S 700 mmHg 85%
    09:00 +9°C° 0 mm 3 m/S 700 mmHg 80%
    10:00 +11°C° 0 mm 3 m/S 700 mmHg 75%
    11:00 +11°C° 0 mm 3 m/S 700 mmHg 72%
    12:00 +12°C° 0 mm 3 m/S 700 mmHg 68%
    13:00 +13°C° 0 mm 3 m/S 699 mmHg 65%
    14:00 +12°C° 0,1 mm 3 m/S 699 mmHg 69%
    15:00 +11°C° 0,1 mm 3 m/S 698 mmHg 73%
    16:00 +10°C° 0,1 mm 2 m/S 698 mmHg 77%
    17:00 +10°C° 0,1 mm 2 m/S 697 mmHg 79%
    18:00 +9°C° 0,1 mm 3 m/S 697 mmHg 81%
    19:00 +9°C° 0,1 mm 3 m/S 696 mmHg 84%
    20:00 +9°C° 1,2 mm 3 m/S 696 mmHg 86%
    21:00 +9°C° 1,2 mm 3 m/S 696 mmHg 88%
    22:00 +9°C° 1,2 mm 3 m/S 695 mmHg 90%
    23:00 +9°C° 0,6 mm 3 m/S 695 mmHg 90%

    17 Dezember, Sonntag

    Zeit Temperatur Niederschläge Wind Luftdruck Luftfeuchtigkeit
    00:00 +9°C° 0,6 mm 3 m/S 694 mmHg 90%
    01:00 +9°C° 0,6 mm 2 m/S 694 mmHg 90%
    02:00 +9°C° 0,3 mm 2 m/S 694 mmHg 90%
    03:00 +9°C° 0,3 mm 2 m/S 694 mmHg 90%
    04:00 +8°C° 0,3 mm 2 m/S 694 mmHg 90%
    05:00 +8°C° 0,2 mm 2 m/S 695 mmHg 90%
    06:00 +8°C° 0,2 mm 2 m/S 696 mmHg 90%
    07:00 +7°C° 0,2 mm 2 m/S 696 mmHg 90%
    08:00 +8°C° 0 mm 3 m/S 697 mmHg 80%
    09:00 +9°C° 0 mm 3 m/S 698 mmHg 70%
    10:00 +10°C° 0 mm 3 m/S 699 mmHg 60%
    11:00 +10°C° 0 mm 3 m/S 699 mmHg 57%
    12:00 +10°C° 0 mm 3 m/S 700 mmHg 53%
    13:00 +10°C° 0 mm 3 m/S 700 mmHg 50%
    14:00 +9°C° 0 mm 3 m/S 700 mmHg 54%
    15:00 +8°C° 0 mm 2 m/S 700 mmHg 59%
    16:00 +7°C° 0 mm 2 m/S 701 mmHg 63%
    17:00 +6°C° 0 mm 2 m/S 701 mmHg 65%
    18:00 +7°C° 0 mm 1 m/S 702 mmHg 68%
    19:00 +6°C° 0 mm 1 m/S 702 mmHg 71%
    20:00 +6°C° 0 mm 1 m/S 703 mmHg 73%
    21:00 +4°C° 0 mm 2 m/S 703 mmHg 74%
    22:00 +4°C° 0 mm 2 m/S 703 mmHg 76%
    23:00 +3°C° 0 mm 2 m/S 704 mmHg 77%

    18 Dezember, Montag

    Zeit Temperatur Niederschläge Wind Luftdruck Luftfeuchtigkeit
    00:00 +3°C° 0 mm 2 m/S 704 mmHg 78%
    01:00 +2°C° 0 mm 2 m/S 704 mmHg 79%
    02:00 +2°C° 0 mm 2 m/S 704 mmHg 79%
    03:00 +2°C° 0 mm 2 m/S 704 mmHg 79%
    04:00 +1°C° 0 mm 2 m/S 704 mmHg 79%
    05:00 +1°C° 0 mm 2 m/S 705 mmHg 78%
    06:00 +1°C° 0 mm 2 m/S 705 mmHg 77%
    07:00 -1°C° 0 mm 2 m/S 705 mmHg 76%
    08:00 +1°C° 0 mm 2 m/S 706 mmHg 70%
    09:00 +2°C° 0 mm 2 m/S 706 mmHg 65%
    10:00 +3°C° 0 mm 2 m/S 707 mmHg 59%
    11:00 +2°C° 0 mm 3 m/S 706 mmHg 58%
    12:00 +3°C° 0 mm 3 m/S 706 mmHg 57%
    13:00 +3°C° 0 mm 3 m/S 706 mmHg 56%
    14:00 +2°C° 0,1 mm 3 m/S 706 mmHg 59%
    15:00 +2°C° 0,1 mm 3 m/S 706 mmHg 63%
    16:00 +1°C° 0,1 mm 3 m/S 706 mmHg 67%
    17:00 0°C° 0,2 mm 3 m/S 706 mmHg 68%
    18:00 0°C° 0,2 mm 3 m/S 706 mmHg 70%
    19:00 -1°C° 0,2 mm 3 m/S 707 mmHg 72%
    20:00 -1°C° 0,2 mm 2 m/S 707 mmHg 72%
    21:00 -1°C° 0,2 mm 2 m/S 707 mmHg 73%
    22:00 -2°C° 0,2 mm 2 m/S 707 mmHg 74%
    23:00 -2°C° 0 mm 2 m/S 707 mmHg 74%
    Mehr zeigen